AAL2759 KDFW-KSAT

Flight info

Callsign AAL2759
Flight time 0h 46m
Altitude 32000
Route JASPA7 WINDU QERVO3
Aircraft A21N/M-SDE2E3FGHIJ1RWXY/LB1

Departure

Time 2026-05-07 22:57
Airport Dallas Fort Worth International Airport (KDFW)

Arrival

Time 2026-05-07 23:44
Airport San Antonio International Airport (KSAT)
Time Latitude Longitude Altitude Speed Heading
2026-05-07 21:59 32.90297 -97.04527 603 ft 0 kts 60°
2026-05-07 22:47 32.90297 -97.04529 603 ft 1 kts 60°
2026-05-07 22:47 32.90289 -97.04544 603 ft 2 kts 60°
2026-05-07 22:47 32.90283 -97.04557 604 ft 2 kts 60°
2026-05-07 22:48 32.90276 -97.04573 604 ft 2 kts 83°
2026-05-07 22:48 32.90279 -97.04590 604 ft 2 kts 133°
2026-05-07 22:48 32.90286 -97.04596 605 ft 0 kts 158°
2026-05-07 22:48 32.90292 -97.04598 605 ft 0 kts 158°
2026-05-07 22:50 32.90290 -97.04597 605 ft 1 kts 155°
2026-05-07 22:51 32.90274 -97.04588 604 ft 3 kts 155°
2026-05-07 22:51 32.90241 -97.04569 604 ft 6 kts 143°
2026-05-07 22:51 32.90205 -97.04520 603 ft 9 kts 122°
2026-05-07 22:51 32.90146 -97.04480 602 ft 9 kts 182°
2026-05-07 22:52 32.90089 -97.04520 603 ft 9 kts 240°
2026-05-07 22:52 32.90083 -97.04598 605 ft 9 kts 270°
2026-05-07 22:52 32.90083 -97.04677 606 ft 9 kts 270°
2026-05-07 22:52 32.90093 -97.04754 608 ft 9 kts 290°
2026-05-07 22:53 32.90113 -97.04829 609 ft 9 kts 277°
2026-05-07 22:53 32.90071 -97.04884 610 ft 10 kts 193°
2026-05-07 22:53 32.89976 -97.04887 610 ft 16 kts 180°
2026-05-07 22:53 32.89826 -97.04887 607 ft 26 kts 180°
2026-05-07 22:54 32.89627 -97.04889 603 ft 29 kts 180°
2026-05-07 22:54 32.89417 -97.04890 598 ft 30 kts 180°
2026-05-07 22:54 32.89204 -97.04891 591 ft 31 kts 180°
2026-05-07 22:54 32.88977 -97.04892 586 ft 32 kts 180°
2026-05-07 22:55 32.88749 -97.04892 581 ft 33 kts 180°
2026-05-07 22:55 32.88529 -97.04894 577 ft 31 kts 181°
2026-05-07 22:55 32.88310 -97.04895 573 ft 31 kts 180°
2026-05-07 22:55 32.88093 -97.04896 570 ft 31 kts 180°
2026-05-07 22:56 32.87907 -97.04932 569 ft 24 kts 253°
2026-05-07 22:56 32.87953 -97.05099 567 ft 20 kts 359°
2026-05-07 22:56 32.88067 -97.05093 569 ft 30 kts
2026-05-07 22:56 32.88520 -97.05090 577 ft 102 kts
2026-05-07 22:57 32.89435 -97.05084 606 ft 160 kts
2026-05-07 22:57 32.90609 -97.05074 1009 ft 178 kts
2026-05-07 22:57 32.91901 -97.05062 1591 ft 191 kts
2026-05-07 22:57 32.93230 -97.05047 2195 ft 200 kts
2026-05-07 22:58 32.94617 -97.05155 2693 ft 204 kts 349°
2026-05-07 22:58 32.95993 -97.05683 3118 ft 213 kts 338°
2026-05-07 22:58 32.97399 -97.06403 3435 ft 231 kts 338°
2026-05-07 22:58 32.98950 -97.07166 3807 ft 248 kts 334°
2026-05-07 22:59 33.00317 -97.08450 4371 ft 257 kts 307°
2026-05-07 22:59 33.01020 -97.10375 5144 ft 260 kts 279°
2026-05-07 22:59 33.01038 -97.12228 5839 ft 261 kts 268°
2026-05-07 22:59 33.00870 -97.14481 6650 ft 263 kts 266°
2026-05-07 23:00 33.00694 -97.16639 7425 ft 265 kts 265°
2026-05-07 23:00 33.00470 -97.18842 8107 ft 272 kts 265°
2026-05-07 23:00 33.00236 -97.21118 8789 ft 279 kts 265°
2026-05-07 23:00 32.99795 -97.23370 9599 ft 284 kts 249°
2026-05-07 23:01 32.98756 -97.25349 10410 ft 288 kts 230°
2026-05-07 23:01 32.97334 -97.27056 10932 ft 302 kts 225°
2026-05-07 23:01 32.95560 -97.28548 11242 ft 324 kts 207°
2026-05-07 23:01 32.93351 -97.29271 11540 ft 346 kts 187°
2026-05-07 23:02 32.90837 -97.29230 11884 ft 365 kts 179°
2026-05-07 23:02 32.88248 -97.29037 12176 ft 382 kts 179°
2026-05-07 23:02 32.85536 -97.28843 12476 ft 397 kts 179°
2026-05-07 23:02 32.82778 -97.28672 12997 ft 405 kts 180°
2026-05-07 23:03 32.79950 -97.28400 13685 ft 411 kts 175°
2026-05-07 23:03 32.77075 -97.27761 14377 ft 417 kts 169°
2026-05-07 23:03 32.74293 -97.26749 15013 ft 423 kts 163°
2026-05-07 23:03 32.71492 -97.25497 15645 ft 428 kts 162°
2026-05-07 23:04 32.68721 -97.24212 16229 ft 432 kts 162°
2026-05-07 23:04 32.65935 -97.22918 16798 ft 437 kts 163°
2026-05-07 23:04 32.63061 -97.21590 17369 ft 441 kts 163°
2026-05-07 23:04 32.60229 -97.20288 17912 ft 445 kts 163°
2026-05-07 23:05 32.57322 -97.18958 18445 ft 449 kts 163°
2026-05-07 23:05 32.54382 -97.17617 18950 ft 454 kts 163°
2026-05-07 23:05 32.51325 -97.16225 19450 ft 459 kts 163°
2026-05-07 23:05 32.48204 -97.14806 19943 ft 464 kts 164°
2026-05-07 23:06 32.45343 -97.13506 20379 ft 468 kts 164°
2026-05-07 23:06 32.42406 -97.12172 20813 ft 472 kts 164°
2026-05-07 23:06 32.40570 -97.11339 21076 ft 475 kts 164°
2026-05-07 23:06 32.37326 -97.09866 21735 ft 474 kts 164°
2026-05-07 23:07 32.34194 -97.08441 22387 ft 473 kts 164°
2026-05-07 23:07 32.31073 -97.07142 22782 ft 474 kts 169°
2026-05-07 23:07 32.27740 -97.06271 23168 ft 472 kts 177°
2026-05-07 23:07 32.24375 -97.05946 23575 ft 469 kts 186°
2026-05-07 23:08 32.21093 -97.05994 24120 ft 467 kts 188°
2026-05-07 23:08 32.17839 -97.06119 24692 ft 465 kts 189°
2026-05-07 23:08 32.14507 -97.06258 25219 ft 465 kts 189°
2026-05-07 23:08 32.11186 -97.06388 25728 ft 465 kts 189°
2026-05-07 23:09 32.07840 -97.06509 26240 ft 464 kts 189°
2026-05-07 23:09 32.04501 -97.06622 26740 ft 464 kts 189°
2026-05-07 23:09 32.01184 -97.06729 27220 ft 464 kts 189°
2026-05-07 23:09 31.97894 -97.06834 27684 ft 463 kts 189°
2026-05-07 23:10 31.94605 -97.06937 28135 ft 463 kts 190°
2026-05-07 23:10 31.91339 -97.07040 28572 ft 463 kts 190°
2026-05-07 23:10 31.88051 -97.07141 28994 ft 462 kts 190°
2026-05-07 23:10 31.84767 -97.07240 29397 ft 462 kts 190°
2026-05-07 23:11 31.81526 -97.07339 29785 ft 462 kts 191°
2026-05-07 23:11 31.78317 -97.07437 30157 ft 462 kts 191°
2026-05-07 23:11 31.75026 -97.07539 30525 ft 461 kts 191°
2026-05-07 23:11 31.71726 -97.07642 30888 ft 461 kts 191°
2026-05-07 23:12 31.68483 -97.07743 31234 ft 461 kts 191°
2026-05-07 23:12 31.65220 -97.07844 31572 ft 461 kts 191°
2026-05-07 23:12 31.62008 -97.07943 31898 ft 461 kts 191°
2026-05-07 23:12 31.58836 -97.08107 32099 ft 457 kts 194°
2026-05-07 23:13 31.55688 -97.08464 32115 ft 458 kts 198°
2026-05-07 23:13 31.49435 -97.09824 32118 ft 454 kts 204°
2026-05-07 23:14 31.43508 -97.11916 32120 ft 446 kts 209°
2026-05-07 23:14 31.37656 -97.14236 32123 ft 445 kts 209°
2026-05-07 23:15 31.31860 -97.16519 32128 ft 444 kts 209°
2026-05-07 23:15 31.26022 -97.18805 32128 ft 443 kts 209°
2026-05-07 23:16 31.20189 -97.21085 32123 ft 444 kts 209°
2026-05-07 23:16 31.14332 -97.23372 32117 ft 445 kts 209°
2026-05-07 23:17 31.08489 -97.25647 32113 ft 445 kts 209°
2026-05-07 23:17 31.02573 -97.27949 32112 ft 445 kts 209°
2026-05-07 23:18 30.96729 -97.30222 32111 ft 443 kts 209°
2026-05-07 23:18 30.90901 -97.32485 32111 ft 442 kts 208°
2026-05-07 23:19 30.85143 -97.34705 32111 ft 441 kts 208°
2026-05-07 23:19 30.79350 -97.36935 32112 ft 441 kts 208°
2026-05-07 23:20 30.73567 -97.39166 32093 ft 440 kts 208°
2026-05-07 23:20 30.70713 -97.40263 31833 ft 429 kts 208°
2026-05-07 23:20 30.67877 -97.41354 31580 ft 423 kts 208°
2026-05-07 23:20 30.65075 -97.42438 31327 ft 420 kts 208°
2026-05-07 23:21 30.62332 -97.43501 31078 ft 416 kts 208°
2026-05-07 23:21 30.59609 -97.44554 30830 ft 415 kts 208°
2026-05-07 23:21 30.56851 -97.45622 30578 ft 414 kts 208°
2026-05-07 23:21 30.54111 -97.46681 30328 ft 414 kts 208°
2026-05-07 23:22 30.51386 -97.47732 30078 ft 414 kts 208°
2026-05-07 23:22 30.48648 -97.48788 29805 ft 414 kts 208°
2026-05-07 23:22 30.45946 -97.49828 29448 ft 414 kts 207°
2026-05-07 23:22 30.43176 -97.50892 28925 ft 414 kts 207°
2026-05-07 23:23 30.40588 -97.51935 28315 ft 412 kts 209°
2026-05-07 23:23 30.37952 -97.53207 27642 ft 409 kts 212°
2026-05-07 23:23 30.35438 -97.54658 26924 ft 406 kts 215°
2026-05-07 23:23 30.33132 -97.56197 26201 ft 405 kts 217°
2026-05-07 23:24 30.30692 -97.57882 25401 ft 406 kts 216°
2026-05-07 23:24 30.28268 -97.59561 24588 ft 407 kts 216°
2026-05-07 23:24 30.25856 -97.61231 23742 ft 409 kts 215°
2026-05-07 23:24 30.23447 -97.62899 22852 ft 411 kts 215°
2026-05-07 23:25 30.20966 -97.64614 21914 ft 414 kts 214°
2026-05-07 23:25 30.18461 -97.66350 20932 ft 417 kts 213°
2026-05-07 23:25 30.15979 -97.68076 20165 ft 413 kts 213°
2026-05-07 23:25 30.13549 -97.69759 19536 ft 408 kts 213°
2026-05-07 23:26 30.11121 -97.71435 18883 ft 404 kts 212°
2026-05-07 23:26 30.08698 -97.73106 18225 ft 400 kts 212°
2026-05-07 23:26 30.06351 -97.74723 17576 ft 397 kts 212°
2026-05-07 23:26 30.03980 -97.76354 16901 ft 395 kts 212°
2026-05-07 23:27 29.99305 -97.79565 15611 ft 389 kts 211°
2026-05-07 23:27 29.97014 -97.81137 14980 ft 387 kts 211°
2026-05-07 23:27 29.94717 -97.82711 14361 ft 384 kts 211°
2026-05-07 23:28 29.92453 -97.84271 14049 ft 378 kts 212°
2026-05-07 23:28 29.90447 -97.86179 13761 ft 375 kts 227°
2026-05-07 23:28 29.88956 -97.88676 13495 ft 374 kts 242°
2026-05-07 23:28 29.87966 -97.91396 13272 ft 366 kts 248°
2026-05-07 23:29 29.87092 -97.94110 13082 ft 351 kts 249°
2026-05-07 23:29 29.86259 -97.96705 13027 ft 334 kts 248°
2026-05-07 23:29 29.85429 -97.99225 13034 ft 330 kts 248°
2026-05-07 23:29 29.84550 -98.01656 13028 ft 330 kts 241°
2026-05-07 23:30 29.83285 -98.03871 13025 ft 329 kts 230°
2026-05-07 23:30 29.81697 -98.05744 12690 ft 332 kts 222°
2026-05-07 23:30 29.79978 -98.07479 12202 ft 330 kts 220°
2026-05-07 23:30 29.78268 -98.09161 11763 ft 327 kts 220°
2026-05-07 23:31 29.76555 -98.10856 11339 ft 324 kts 220°
2026-05-07 23:31 29.74864 -98.12541 10922 ft 321 kts 220°
2026-05-07 23:31 29.73213 -98.14196 10513 ft 319 kts 220°
2026-05-07 23:31 29.71564 -98.15852 10201 ft 312 kts 220°
2026-05-07 23:32 29.69970 -98.17452 10144 ft 297 kts 221°
2026-05-07 23:32 29.68468 -98.18951 10064 ft 284 kts 221°
2026-05-07 23:32 29.66992 -98.20438 9775 ft 280 kts 222°
2026-05-07 23:32 29.65546 -98.21897 9424 ft 279 kts 222°
2026-05-07 23:33 29.64056 -98.23398 8942 ft 281 kts 222°
2026-05-07 23:33 29.62590 -98.24872 8630 ft 278 kts 222°
2026-05-07 23:33 29.61123 -98.26346 8302 ft 276 kts 222°
2026-05-07 23:33 29.59689 -98.27786 7977 ft 274 kts 223°
2026-05-07 23:34 29.58231 -98.29249 7646 ft 273 kts 223°
2026-05-07 23:34 29.56806 -98.30678 7319 ft 272 kts 223°
2026-05-07 23:34 29.55408 -98.32079 7001 ft 270 kts 223°
2026-05-07 23:34 29.53982 -98.33508 6682 ft 269 kts 223°
2026-05-07 23:35 29.52599 -98.34892 6371 ft 268 kts 223°
2026-05-07 23:35 29.51194 -98.36298 6095 ft 264 kts 223°
2026-05-07 23:35 29.49860 -98.37632 6023 ft 252 kts 223°
2026-05-07 23:35 29.48602 -98.38889 6013 ft 237 kts 223°
2026-05-07 23:36 29.47362 -98.40128 6018 ft 233 kts 223°
2026-05-07 23:36 29.46196 -98.41292 6019 ft 234 kts 223°
2026-05-07 23:36 29.44972 -98.42513 6019 ft 234 kts 223°
2026-05-07 23:36 29.43813 -98.43668 5947 ft 230 kts 223°
2026-05-07 23:37 29.42588 -98.44889 5607 ft 232 kts 223°
2026-05-07 23:37 29.41376 -98.46097 5280 ft 232 kts 223°
2026-05-07 23:37 29.40184 -98.47286 4984 ft 232 kts 223°
2026-05-07 23:37 29.38962 -98.48508 4680 ft 232 kts 223°
2026-05-07 23:38 29.37752 -98.49715 4381 ft 231 kts 223°
2026-05-07 23:38 29.36641 -98.51025 4067 ft 228 kts 244°
2026-05-07 23:38 29.36342 -98.52716 3743 ft 220 kts 284°
2026-05-07 23:38 29.36888 -98.54140 3539 ft 214 kts 311°
2026-05-07 23:39 29.39153 -98.55978 3515 ft 216 kts 331°
2026-05-07 23:39 29.40674 -98.56990 3515 ft 216 kts 331°
2026-05-07 23:39 29.42035 -98.57547 3475 ft 213 kts 358°
2026-05-07 23:40 29.43390 -98.57159 3280 ft 205 kts 31°
2026-05-07 23:40 29.44319 -98.56014 3024 ft 198 kts 54°
2026-05-07 23:40 29.45026 -98.54736 2787 ft 184 kts 54°
2026-05-07 23:40 29.45737 -98.53678 2551 ft 171 kts 47°
2026-05-07 23:41 29.46476 -98.52793 2326 ft 155 kts 43°
2026-05-07 23:41 29.47214 -98.52013 2125 ft 147 kts 40°
2026-05-07 23:41 29.47976 -98.51262 1949 ft 148 kts 39°
2026-05-07 23:41 29.48727 -98.50529 1767 ft 147 kts 39°
2026-05-07 23:42 29.49486 -98.49773 1584 ft 147 kts 40°
2026-05-07 23:42 29.50240 -98.49027 1413 ft 148 kts 39°
2026-05-07 23:42 29.50972 -98.48322 1218 ft 149 kts 40°
2026-05-07 23:42 29.51724 -98.47581 1001 ft 146 kts 40°
2026-05-07 23:43 29.52462 -98.46851 842 ft 143 kts 40°
2026-05-07 23:43 29.52930 -98.46394 818 ft 118 kts 41°
2026-05-07 23:43 29.53022 -98.46301 818 ft 104 kts 40°
2026-05-07 23:44 29.53281 -98.46231 818 ft 21 kts 221°
2026-05-07 23:44 29.53156 -98.46355 818 ft 25 kts 221°
2026-05-07 23:44 29.53014 -98.46495 818 ft 29 kts 220°
2026-05-07 23:45 29.52852 -98.46654 818 ft 32 kts 221°
2026-05-07 23:45 29.52772 -98.46803 818 ft 21 kts 302°
2026-05-07 23:45 29.52872 -98.46938 818 ft 18 kts 309°
2026-05-07 23:45 29.52858 -98.47026 818 ft 13 kts 252°
2026-05-07 23:46 29.52788 -98.47116 818 ft 15 kts 220°
2026-05-07 23:46 29.52808 -98.47177 818 ft 9 kts 326°
2026-05-07 23:46 29.52824 -98.47189 818 ft 0 kts 329°